Location: Newton_East
(35.6670°N, 81.2000°W)
Time: 16:37:11
(UTC-04:00)

ISS - Visible Passes

Search period start: 26 May 2017 00:00
Search period end: 05 June 2017 00:00
Orbit: 402 x 408 km, 51.6° (Epoch: 27 May)

Date Brightness Start Highest point End Pass type
(mag) Time Alt. Az. Time Alt. Az. Time Alt. Az.
26 May -1.4 03:40:26 10° NNW 03:43:12 24° NNE 03:45:57 10° E visible
26 May -3.0 05:16:47 10° WNW 05:19:40 29° SW 05:22:33 10° SSE visible
26 May -1.1 21:54:59 10° W 21:57:41 23° NNW 22:00:24 10° NNE visible
27 May -0.7 02:48:55 10° N 02:50:58 15° NNE 02:51:16 15° NE visible
27 May -4.0 04:27:44 64° SW 04:27:45 64° SW 04:30:58 10° SE visible
27 May -2.2 21:02:25 10° WSW 21:05:33 40° NW 21:08:41 10° NE visible
28 May -0.5 21:48:50 10° NW 21:50:23 13° NNW 21:51:56 10° N visible
02 Jun -0.2 00:49:02 10° NNW 00:49:04 10° NNW 00:49:04 10° NNW visible
02 Jun -0.7 23:57:30 10° N 23:58:35 13° NNE 23:58:35 13° NNE visible
04 Jun -1.0 23:48:58 10° NNW 23:50:19 19° N 23:50:19 19° N visible
